Location: Dunn (historical)
(35.2693°N, 90.5721°W)
Time: 12:19:35
(UTC+00:00)

Aureole 1 Rocket - Pass Details

Date: 13 February 2026
Orbit: 374 x 1158 km, 73.9° (Epoch: 8 March)

Event Time Altitude Azimuth Distance (km) Brightness Sun altitude
Rises 12:12:04 0° 206° (SSW) 4,014 7.0 -8.5°
Reaches altitude 10° 12:14:51 10° 209° (SSW) 3,060 6.4 -7.9°
Maximum altitude 12:22:09 62° 289° (WNW) 1,249 4.3 -6.5°
Drops below altitude 10° 12:28:51 10° 10° (N) 2,812 6.4 -5.1°
Sets 12:31:19 0° 14° (NNE) 3,671 7.0 -4.6°
